When you browse on this site, cookies collect data to enhance your experience and personalize the content and advertising you see.
Visit our Privacy Policy to learn more. By continuing to use the site, you agree to this use of cookies and data.
  • In Latvia
  • List of Countries
  • For 7 days
  • Water Temperature
  • Satellite Maps
  • Weather Map
  • Weather Widgets
  • user-avatar
    Login

    Hourly Weather Ozolnieki

    Today, 23 February, Saturday

    Time Temperature Precipitation Wind Pressure Humidity
    00:00 -4°C° 0 mm 1 mps 781 mmHg 57%
    01:00 -6°C° 0 mm 2 mps 781 mmHg 55%
    02:00 -6°C° 0 mm 2 mps 782 mmHg 51%
    03:00 -6°C° 0 mm 2 mps 781 mmHg 46%
    04:00 -6°C° 0 mm 3 mps 781 mmHg 42%
    05:00 -6°C° 0 mm 3 mps 780 mmHg 38%
    06:00 -6°C° 0 mm 3 mps 780 mmHg 39%
    07:00 -5°C° 0 mm 4 mps 780 mmHg 41%
    08:00 -6°C° 0 mm 5 mps 779 mmHg 42%
    09:00 -5°C° 0 mm 5 mps 779 mmHg 48%
    10:00 -5°C° 0 mm 5 mps 778 mmHg 55%
    11:00 -4°C° 0 mm 5 mps 778 mmHg 61%
    12:00 -4°C° 0 mm 5 mps 777 mmHg 63%
    13:00 -2°C° 0 mm 5 mps 777 mmHg 65%
    14:00 -2°C° 0 mm 5 mps 776 mmHg 67%
    15:00 -1°C° 0 mm 5 mps 776 mmHg 70%
    16:00 -1°C° 0 mm 5 mps 776 mmHg 73%
    17:00 -1°C° 0 mm 4 mps 775 mmHg 76%
    18:00 -1°C° 0 mm 4 mps 775 mmHg 78%
    19:00 -1°C° 0 mm 4 mps 775 mmHg 81%
    20:00 -1°C° 0 mm 4 mps 775 mmHg 83%
    21:00 0°C° 0 mm 3 mps 774 mmHg 85%
    22:00 0°C° 0 mm 3 mps 774 mmHg 87%
    23:00 0°C° 0 mm 3 mps 774 mmHg 89%

    Tomorrow, 24 February, Sunday

    Time Temperature Precipitation Wind Pressure Humidity
    00:00 0°C° 0 mm 3 mps 774 mmHg 91%
    01:00 0°C° 0 mm 3 mps 774 mmHg 92%
    02:00 0°C° 0 mm 3 mps 773 mmHg 93%
    03:00 -1°C° 0 mm 2 mps 773 mmHg 94%
    04:00 -1°C° 0 mm 2 mps 773 mmHg 95%
    05:00 -1°C° 0 mm 2 mps 773 mmHg 95%
    06:00 -1°C° 0 mm 2 mps 773 mmHg 95%
    07:00 -1°C° 0 mm 2 mps 772 mmHg 96%
    08:00 -2°C° 0 mm 2 mps 772 mmHg 96%
    09:00 +1°C° 0 mm 2 mps 772 mmHg 92%
    10:00 +1°C° 0 mm 3 mps 772 mmHg 88%
    11:00 +2°C° 0 mm 3 mps 772 mmHg 84%
    12:00 +3°C° 0 mm 3 mps 771 mmHg 81%
    13:00 +4°C° 0 mm 4 mps 771 mmHg 79%
    14:00 +5°C° 0 mm 4 mps 770 mmHg 76%
    15:00 +4°C° 0 mm 4 mps 770 mmHg 80%
    16:00 +4°C° 0 mm 3 mps 770 mmHg 83%
    17:00 +3°C° 0 mm 3 mps 769 mmHg 86%
    18:00 +3°C° 0 mm 3 mps 769 mmHg 87%
    19:00 +2°C° 0 mm 3 mps 770 mmHg 89%
    20:00 +1°C° 0 mm 3 mps 770 mmHg 91%
    21:00 +1°C° 0 mm 3 mps 770 mmHg 91%
    22:00 +1°C° 0 mm 3 mps 770 mmHg 91%
    23:00 0°C° 0 mm 3 mps 770 mmHg 92%

    Day after tomorrow, 25 February, Monday

    Time Temperature Precipitation Wind Pressure Humidity
    00:00 0°C° 0 mm 3 mps 770 mmHg 90%
    01:00 0°C° 0 mm 3 mps 770 mmHg 89%
    02:00 0°C° 0 mm 3 mps 770 mmHg 88%
    03:00 0°C° 0 mm 3 mps 770 mmHg 86%
    04:00 -1°C° 0 mm 4 mps 770 mmHg 85%
    05:00 -1°C° 0 mm 4 mps 770 mmHg 84%
    06:00 -1°C° 0 mm 4 mps 770 mmHg 83%
    07:00 -1°C° 0 mm 4 mps 769 mmHg 82%
    08:00 -1°C° 0 mm 4 mps 769 mmHg 81%
    09:00 +1°C° 0 mm 4 mps 769 mmHg 77%
    10:00 +2°C° 0 mm 5 mps 769 mmHg 72%
    11:00 +4°C° 0 mm 6 mps 769 mmHg 68%
    12:00 +4°C° 0 mm 6 mps 768 mmHg 66%
    13:00 +4°C° 0 mm 6 mps 768 mmHg 64%
    14:00 +4°C° 0 mm 6 mps 768 mmHg 62%
    15:00 +4°C° 0 mm 6 mps 768 mmHg 66%
    16:00 +3°C° 0 mm 5 mps 768 mmHg 69%
    17:00 +2°C° 0 mm 5 mps 768 mmHg 72%
    18:00 +1°C° 0 mm 5 mps 768 mmHg 75%
    19:00 +1°C° 0 mm 4 mps 768 mmHg 78%
    20:00 0°C° 0 mm 4 mps 768 mmHg 81%
    21:00 0°C° 0 mm 4 mps 767 mmHg 81%
    22:00 0°C° 0 mm 4 mps 767 mmHg 81%
    23:00 0°C° 0 mm 4 mps 767 mmHg 81%

    26 February, Tuesday

    Time Temperature Precipitation Wind Pressure Humidity
    00:00 0°C° 0 mm 4 mps 767 mmHg 79%
    01:00 +1°C° 0 mm 4 mps 766 mmHg 78%
    02:00 +1°C° 0 mm 4 mps 766 mmHg 76%
    03:00 +1°C° 0 mm 4 mps 765 mmHg 75%
    04:00 +1°C° 0 mm 5 mps 765 mmHg 74%
    05:00 +1°C° 0 mm 5 mps 764 mmHg 73%
    06:00 +1°C° 0 mm 5 mps 764 mmHg 77%
    07:00 +1°C° 0 mm 5 mps 764 mmHg 82%
    08:00 +1°C° 0 mm 5 mps 764 mmHg 86%
    09:00 +2°C° 0 mm 5 mps 764 mmHg 81%
    10:00 +3°C° 0 mm 6 mps 764 mmHg 76%
    11:00 +4°C° 0 mm 7 mps 764 mmHg 71%
    12:00 +4°C° 0 mm 7 mps 764 mmHg 69%
    13:00 +4°C° 0 mm 7 mps 764 mmHg 66%
    14:00 +5°C° 0 mm 7 mps 764 mmHg 64%
    15:00 +4°C° 0 mm 6 mps 764 mmHg 66%
    16:00 +3°C° 0 mm 6 mps 765 mmHg 67%
    17:00 +3°C° 0 mm 5 mps 765 mmHg 69%
    18:00 +3°C° 0 mm 4 mps 765 mmHg 74%
    19:00 +1°C° 0 mm 4 mps 766 mmHg 78%
    20:00 +1°C° 0 mm 3 mps 766 mmHg 83%
    21:00 +1°C° 0 mm 3 mps 766 mmHg 86%
    22:00 0°C° 0 mm 3 mps 766 mmHg 88%
    23:00 0°C° 0 mm 3 mps 766 mmHg 90%

    27 February, Wednesday

    Time Temperature Precipitation Wind Pressure Humidity
    00:00 +1°C° 0 mm 2 mps 766 mmHg 91%
    01:00 +1°C° 0 mm 2 mps 766 mmHg 92%
    02:00 -1°C° 0 mm 2 mps 766 mmHg 93%
    03:00 -1°C° 0 mm 2 mps 766 mmHg 92%
    04:00 -1°C° 0 mm 2 mps 765 mmHg 91%
    05:00 +1°C° 0 mm 2 mps 765 mmHg 90%
    06:00 +1°C° 0 mm 2 mps 765 mmHg 89%
    07:00 +1°C° 0 mm 2 mps 764 mmHg 87%
    08:00 +1°C° 0 mm 2 mps 764 mmHg 86%
    09:00 +3°C° 0 mm 2 mps 763 mmHg 82%
    10:00 +3°C° 0 mm 3 mps 763 mmHg 78%
    11:00 +5°C° 0 mm 4 mps 763 mmHg 73%
    12:00 +5°C° 0 mm 4 mps 762 mmHg 74%
    13:00 +5°C° 0 mm 4 mps 762 mmHg 75%
    14:00 +5°C° 0 mm 4 mps 762 mmHg 76%
    15:00 +5°C° 0 mm 3 mps 762 mmHg 74%
    16:00 +4°C° 0 mm 3 mps 761 mmHg 72%
    17:00 +5°C° 0 mm 2 mps 761 mmHg 70%
    18:00 +4°C° 0 mm 2 mps 761 mmHg 73%
    19:00 +3°C° 0 mm 2 mps 761 mmHg 76%
    20:00 +2°C° 0 mm 2 mps 761 mmHg 79%
    21:00 +2°C° 0 mm 2 mps 760 mmHg 79%
    22:00 +2°C° 0 mm 2 mps 759 mmHg 79%
    23:00 +2°C° 0 mm 2 mps 759 mmHg 80%

    28 February, Thursday

    Time Temperature Precipitation Wind Pressure Humidity
    00:00 +2°C° 0 mm 2 mps 758 mmHg 78%
    01:00 +1°C° 0 mm 3 mps 757 mmHg 77%
    02:00 +2°C° 0 mm 3 mps 756 mmHg 75%
    03:00 +2°C° 0 mm 3 mps 755 mmHg 74%
    04:00 +2°C° 0 mm 3 mps 753 mmHg 72%
    05:00 +2°C° 0 mm 3 mps 752 mmHg 70%
    06:00 +1°C° 0.1 mm 4 mps 751 mmHg 75%
    07:00 +1°C° 0.1 mm 4 mps 749 mmHg 81%
    08:00 +1°C° 0.1 mm 5 mps 748 mmHg 86%
    09:00 +2°C° 0.1 mm 5 mps 747 mmHg 85%
    10:00 +2°C° 0.1 mm 5 mps 746 mmHg 85%
    11:00 +3°C° 0.1 mm 5 mps 745 mmHg 84%
    12:00 +3°C° 0 mm 5 mps 745 mmHg 78%
    13:00 +5°C° 0 mm 5 mps 745 mmHg 72%
    14:00 +4°C° 0 mm 6 mps 745 mmHg 67%
    15:00 +4°C° 0 mm 6 mps 745 mmHg 65%
    16:00 +3°C° 0 mm 6 mps 745 mmHg 64%
    17:00 +3°C° 0 mm 6 mps 745 mmHg 62%
    18:00 +2°C° 0 mm 6 mps 746 mmHg 65%
    19:00 +2°C° 0 mm 7 mps 746 mmHg 68%
    20:00 0°C° 0 mm 7 mps 747 mmHg 71%
    21:00 -1°C° 0 mm 7 mps 747 mmHg 67%
    22:00 -2°C° 0 mm 7 mps 748 mmHg 62%
    23:00 -3°C° 0 mm 7 mps 749 mmHg 58%
    Show more